Regional Weather Roundup
Issued by NWS

Home | Current Version | Previous Version | Text Only | Print | Product List | Glossary On
Versions: 1 2 3 4 5 6 7 8 9 10 11 12 13 14 15 16 17 18 19 20 21 22 23 24 25 26 27 28
000
ASUS44 KBMX 240010
RWRAL

ALABAMA REGIONAL WEATHER ROUNDUP
NATIONAL WEATHER SERVICE BIRMINGHAM AL
600 PM CST TUE JAN 23 2018

NOTE: "FAIR" INDICATES FEW OR NO CLOUDS BELOW 12,000 FEET
WITH NO SIGNIFICANT WEATHER AND/OR OBSTRUCTIONS TO VISIBILITY.

THE REMARK "TC" DENOTES TEMPERATURE IN DEGREES CELSIUS.

ALZ001>011-014-016>018-020-240100-
NORTH ALABAMA

CITY           SKY/WX    TMP DP  RH WIND       PRES   REMARKS
MUSCLE SHOALS  FAIR      41  28  60 NW8       30.21R
6HR MIN TEMP:  41; 6HR MAX TEMP:  49;

HUNTSVILLE     FAIR      42  30  62 NW8       30.17R
6HR MIN TEMP:  42; 6HR MAX TEMP:  51;

DECATUR        FAIR      40  29  64 NW9       30.19R WCI  34
6HR MIN TEMP:  40; 6HR MAX TEMP:  50;

HALEYVILLE     FAIR      40  31  70 N6        30.19R
6HR MIN TEMP:  40; 6HR MAX TEMP:  50;

GADSDEN        FAIR      47  33  58 NW14      30.15R
6HR MIN TEMP:  47; 6HR MAX TEMP:  55;

$$

ALZ012-013-022-023-030>036-040>044-240100-
WEST CENTRAL ALABAMA

CITY           SKY/WX    TMP DP  RH WIND       PRES   REMARKS
TUSCALOOSA     FAIR      51  33  50 NW3       30.17R
6HR MIN TEMP:  51; 6HR MAX TEMP:  57;

DEMOPOLIS        N/A     49  33  53 CALM      30.17R
6HR MIN TEMP:  53; 6HR MAX TEMP:  58;

$$

ALZ015-024>026-033>036-041>044-240100-
CENTRAL ALABAMA

CITY           SKY/WX    TMP DP  RH WIND       PRES   REMARKS
BIRMINGHAM     FAIR      49  31  49 NW9       30.17R
6HR MIN TEMP:  49; 6HR MAX TEMP:  55;

MONTGOMERY     FAIR      50  31  48 W6        30.14R
6HR MIN TEMP:  50; 6HR MAX TEMP:  58;

SHELBY CO ARPT FAIR      49  34  56 W3        30.15R
6HR MIN TEMP:  49; 6HR MAX TEMP:  55;

MAXWELL AFB    CLEAR     53  33  46 W7        30.12R
GREENVILLE     FAIR      54  29  38 NW6       30.13R
6HR MIN TEMP:  54; 6HR MAX TEMP:  61;

SELMA          FAIR      46  32  57 NW7       30.16R
PRATTVILLE     FAIR      49  33  53 W3        30.13R
6HR MIN TEMP:  49; 6HR MAX TEMP:  57;

BESSEMER       NOT AVBL
TALLADEGA      FAIR      48  33  56 NW5       30.14R
6HR MIN TEMP:  48; 6HR MAX TEMP:  55;

PELL CITY      CLEAR     43  34  70 CALM      30.15R
MARION         FAIR      46  33  61 NW3       30.16R
6HR MIN TEMP:  46; 6HR MAX TEMP:  56;

SYLACAUGA      FAIR      45  36  70 W5        30.14R
6HR MIN TEMP:  45; 6HR MAX TEMP:  58;

$$

ALZ019-021-028-029-037-038-045>048-240100-
EAST CENTRAL ALABAMA

CITY           SKY/WX    TMP DP  RH WIND       PRES   REMARKS
ANNISTON       FAIR      44  31  60 SW3       30.12R
6HR MIN TEMP:  43; 6HR MAX TEMP:  55;

ALEXANDER CITY FAIR      49  37  62 W5        30.13R
6HR MIN TEMP:  49; 6HR MAX TEMP:  55;

AUBURN         FAIR      50  33  52 W7        30.13R
6HR MIN TEMP:  50; 6HR MAX TEMP:  57;

$$

ALZ051>064-240100-
SOUTHWEST ALABAMA

CITY           SKY/WX    TMP DP  RH WIND       PRES   REMARKS
MOBILE         MOCLDY    55  30  38 NW7       30.17R
6HR MIN TEMP:  55; 6HR MAX TEMP:  65;

BROOKLEY FIELD FAIR      57  29  34 NW7       30.17R
6HR MIN TEMP:  57; 6HR MAX TEMP:  68;

EVERGREEN      FAIR      52  33  48 CALM      30.14R
6HR MIN TEMP:  52; 6HR MAX TEMP:  64;

$$

ALZ049-050-065>069-240100-
SOUTHEAST ALABAMA

CITY           SKY/WX    TMP DP  RH WIND       PRES   REMARKS
DOTHAN         FAIR      54  32  43 W7        30.13R
6HR MIN TEMP:  54; 6HR MAX TEMP:  65;

OZARK          FAIR      55  31  40 W3        30.11R
6HR MIN TEMP:  55; 6HR MAX TEMP:  65; 6HR PCP: TRACE;

TROY           FAIR      49  32  52 NW6       30.13R
6HR MIN TEMP:  49; 6HR MAX TEMP:  62;

EUFAULA        FAIR      54  32  43 W5        30.11R
6HR MIN TEMP:  54; 6HR MAX TEMP:  65;

$$




USA.gov is the U.S. government's official web portal to all federal, state and local government web resources and services.